User: anonymous   Login
Location: Guilderland
(42.7045°N, 73.9115°W)
Time: 02:31:13
(UTC+00:00)
Language:

Envisat - Orbit

View from above orbital plane
View from above orbital plane
View from above satellite
View from above satellite

Ground track
Ground track

The orbit data is extracted from the following two-line orbital elements,

1 27386U 02009A   20090.81707361  .00000008  00000-0  16103-4 0  9994
2 27386  98.1393 101.9913 0001388  93.0782  79.6780 14.37975617947315
Epoch (UTC): 30 March 2020 19:36:35
Eccentricity: 0.0001388
inclination: 98.1393°
perigee height: 764 km
apogee height: 766 km
right ascension of ascending node: 101.9913°
argument of perigee: 93.0782°
revolutions per day: 14.37975617
mean anomaly at epoch: 79.6780°
orbit number at epoch: 94731

The dashed part of the orbit path shows where the satellite is in the earth's shadow,  

DLR